Regional Weather Roundup
Issued by NWS

Home | Current Version | Previous Version | Graphics & Text | Print | Product List | Glossary On
Versions: 1 2 3 4 5 6 7 8 9 10 11 12 13 14 15 16 17 18 19 20 21 22 23 24 25 26 27 28 29 30 31 32 33 34 35 36 37 38 39 40 41 42 43 44 45 46 47 48 49 50
000
ASUS43 KLOT 021612
RWRIL

ILLINOIS REGIONAL WEATHER ROUNDUP
NATIONAL WEATHER SERVICE CHICAGO/ROMEOVILLE IL
1100 AM CDT SUN AUG 02 2015

NOTE: "FAIR" INDICATES FEW OR NO CLOUDS BELOW 12,000 FEET WITH NO
SIGNIFICANT WEATHER AND/OR OBSTRUCTIONS TO VISIBILITY.

* THESE STATIONS ARE NOT UNDER NWS QUALITY CONTROL. THEY ALSO MAY NOT
  REPORT WEATHER SUCH AS PRECIPITATION OR FOG.

ILZ001-002-007-009-015-016-024-021700-
NORTHWEST ILLINOIS

CITY           SKY/WX    TMP DP  RH WIND       PRES   REMARKS
MOLINE         MOSUNNY   83  66  56 SW12G23   29.83F HX  85
STERLING*      SUNNY     84  70  61 W10G17    29.79F HX  88
SAVANNA*       SUNNY     83  65  54 SW12G18   29.80F HX  85
$$

ILZ003-004-008-010-011-017-018-021700-
NORTH CENTRAL ILLINOIS

CITY           SKY/WX    TMP DP  RH WIND       PRES   REMARKS
ROCKFORD       MOSUNNY   84  64  50 SW20G26   29.80F HX  85
FREEPORT*      SUNNY     82  67  61 SW17G28   29.81F HX  84
ROCHELLE*      SUNNY     81  64  55 SW15G23   29.83F HX  82
DE KALB*       SUNNY     83  65  55 SW20G29   29.84F HX  84
PERU*          SUNNY     84  62  47 SW14      29.86F HX  85
$$

ILZ005-006-012>014-019>023-021700-
NORTHEAST ILLINOIS

CITY           SKY/WX    TMP DP  RH WIND       PRES   REMARKS
CHICAGO-OHARE  MOSUNNY   85  64  49 W16G24    29.81F HX  86
CHICAGO-MIDWAY MOSUNNY   88  62  41 W18G28    29.82F HX  88
AURORA         SUNNY     84  64  50 SW13      29.84F HX  85
LANSING*       SUNNY     87  66  49 W16G23    29.84F HX  89
JOLIET*        SUNNY     86  66  51 SW10G17   29.85F HX  88
WAUKEGAN       SUNNY     85  67  54 SW18G30   29.77F HX  87
DUPAGE AIRPORT SUNNY     84  64  50 SW21      29.83F HX  85
KANKAKEE*      SUNNY     86  73  64 SW12      29.88F HX  93
WHEELING       SUNNY     86  63  45 SW17G24   29.81F HX  87
MORRIS*        SUNNY     83  66  56 SW15G21   29.84F HX  85
ROMEOVILLE*    SUNNY     83  63  49 SW12G18   29.85S HX  84
NORTHERLY ISL    N/A     85  58  39 SW16        N/A  HX  84
$$

LMZ740>746-021700-
SOUTHERN LAKE MICHIGAN

STATION/POSITION SKY/WX   TEMP    WIND        PRES    VSBY  WAVE
                          AIR SEA DIR/SP/G                  HT/PER
                          (F)     (DEG/KT/KT) (MB)    (MI)  (FT/S)
HARRISON CRIB              81     230/ 18/ 27   N/A
BURNHAM HARBOR             86     240/ 10/ 19   N/A
CALUMET HARBOR             83     230/ 12/ 20   N/A
BURNS HARBOR               81     230/ 18     1011.2F
MICHIGAN CITY              78     190/ 18/ 22   N/A
MICHIGAN CITY 6N           78 74  230/ 12/ 16   N/A           2/ 3
ST. JOSEPH                 76 73  240/ 14/ 16   N/A           3/ 4
$$

ILZ025>027-034>036-040-047-049-050-058-095>099-021700-
WEST-CENTRAL ILLINOIS

CITY           SKY/WX    TMP DP  RH WIND       PRES   REMARKS
QUINCY         PTSUNNY   84  70  62 SW9       29.90F HX  88
GALESBURG*     PTSUNNY   82  69  65 S14G21    29.87F HX  85
MACOMB*        PTSUNNY   81  69  65 SW10G17   29.91F HX  84
JACKSONVILLE*  MOSUNNY   86  72  62 SW10      29.91F HX  93
PITTSFIELD*    MOSUNNY   86  71  60 SW7       29.92F HX  91
$$

ILZ028>032-037-038-041>044-048-051>054-059>061-021700-
CENTRAL ILLINOIS

CITY           SKY/WX    TMP DP  RH WIND       PRES   REMARKS
PONTIAC        MOSUNNY   84  74  72 SW14      29.89S HX  92
BLOOMINGTON    SUNNY     84  70  63 SW16      29.93S HX  88
DECATUR        SUNNY     85  71  63 SW14      29.93F HX  90
PEORIA         PTSUNNY   86  69  56 SW14      29.89F HX  90
LACON*         MOSUNNY   83  66  57 SW10      29.87S HX  85
LINCOLN*       MOSUNNY   88  68  52 SW8       29.91S HX  92
SPRINGFIELD    MOSUNNY   82  71  69 SW8       29.93S HX  86
TAYLORVILLE    MOSUNNY   82  72  69 SW8       29.94F HX  87
$$

ILZ033-039-045-046-055>057-062-063-021700-
EAST-CENTRAL ILLINOIS

CITY           SKY/WX    TMP DP  RH WIND       PRES   REMARKS
CHAMPAIGN      SUNNY     84  72  67 SW12      29.93F HX  89
DANVILLE*      SUNNY     82  73  74 SW8G20    29.90F HAZE    HX  88
RANTOUL*       SUNNY     85  73  66 SW10G16   29.92F HX  92
MATTOON        SUNNY     84  68  58 SW9G18    29.94F HX  87
PARIS*         SUNNY     83  72  69 SW8       29.96S HX  89
$$

ILZ079-100>102-021700-
SOUTHWEST ILLINOIS

CITY           SKY/WX    TMP DP  RH WIND       PRES   REMARKS
ALTON          MOSUNNY   86  70  58 SW9       29.95F HX  90
BELLEVILLE     SUNNY     87  75  67 S9        29.94F HX  96
CAHOKIA*       SUNNY     88  70  55 S6        29.94F HX  93
SPARTA*        SUNNY     85  73  66 SW8       29.98S HX  91
$$

ILZ064>066-069>071-074>076-080>082-084>086-088>090-092>094-021700-
SOUTH-CENTRAL ILLINOIS

CITY           SKY/WX    TMP DP  RH WIND       PRES   REMARKS
CARBONDALE     SUNNY     84  70  62 S9        29.98S HX  88
CAIRO*         SUNNY     83  70  66 S6        29.99F HX  87
EFFINGHAM*     MOSUNNY   85  67  53 S9        29.97F HX  87
MARION         MOSUNNY   84  70  61 SW12      29.99F HX  88
MT. VERNON     SUNNY     88  70  55 S10       29.98F HX  92
CENTRALIA*     SUNNY     86  70  58 S9        29.96F HX  91
SALEM*         SUNNY     87  70  56 SW6       29.96F HX  92
METROPOLIS*    SUNNY     83  69  63 S5        30.01S HX  87
$$

ILZ067-068-072-073-078-083-087-091-021700-
SOUTHEAST ILLINOIS

CITY           SKY/WX    TMP DP  RH WIND       PRES   REMARKS
LAWRENCEVILLE  SUNNY     84  67  56 SW7       29.97F HX  86
FLORA*         SUNNY     85  69  59 SW7       29.97S HX  88
FAIRFIELD*     SUNNY     84  70  63 SW8       29.96F HX  89
HARRISBURG*    SUNNY     82  67  60 SW7       30.00S HX  85
ROBINSON*      SUNNY     83  69  62 SW7       29.97F HX  87
CARMI*         SUNNY     82  63  51 CALM      29.98F HX  83
$$

ABBREVIATIONS USED IN REMARKS
   TC - TEMPERATURE IN CELSIUS
  WCI - WIND CHILL INDEX
   HX - HEAT INDEX
  VSB - VISIBILITY
$$



USA.gov is the U.S. government's official web portal to all federal, state and local government web resources and services.